Weather History for Williams, AZ

Change the Weather History Date:

Tuesday, July 16, 2013

  Actual Average (KFLG) Record (KFLG)
Temperature  
Mean Temperature 67 °F 66 °F  
Max Temperature 75 °F 82 °F 92 °F (1960)
Min Temperature 59 °F 52 °F 37 °F (2001)
Degree Days  
Heating Degree Days 0 1  
Month to date heating degree days 21  
Since 1 July heating degree days 21  
Cooling Degree Days 2 2  
Month to date cooling degree days 32  
Year to date cooling degree days 49  
Growing Degree Days 17 (Base 50)    
Moisture  
Dew Point 54 °F    
Average Humidity 73    
Maximum Humidity 94    
Minimum Humidity 44    
Precipitation  
Precipitation 0.16 in 0.09 in 1.05 in (1908)
Month to date precipitation 1.01  
Year to date precipitation 9.48  
Sea Level Pressure  
Sea Level Pressure 30.34 in    
Wind  
Wind Speed 5 mph (SSE)    
Max Wind Speed 13 mph    
Max Gust Speed 22 mph    
Visibility 10 miles    
Events      
T = Trace of Precipitation, MM = Missing Value Source: NWS Daily Summary

Daily Weather History Graph

Daily Weather History Graph

Search for Another Location

Airport:

Trip Planner

Search our weather history database for the weather conditions in past years. The results will help you decide how hot, cold, wet, or windy it might be!

Date:

Astronomy

Jul. 16, 2013 Rise Set
Actual Time 5:26 AM MST 7:43 PM MST
Civil Twilight 4:57 AM MST 8:12 PM MST
Nautical Twilight 4:21 AM MST 8:47 PM MST
Astronomical Twilight 3:42 AM MST 9:26 PM MST
Moon 1:33 PM MST (7/16) No Moon Set
Length of Visible Light 15h 14m
Length of Day
14h 16m
First Quarter, 57% of the Moon is Illuminated
Jul 16
First Quarter
Jul 22
Full
Jul 29
Last Quarter
Aug 6
New
Aug 14
First Quarter

Hourly Weather History & Observations

Time (MST) Temp. Dew Point Humidity Pressure Visibility Wind Dir Wind Speed Gust Speed Precip Events Conditions
12:15 AM 62.6 °F 55.4 °F 77% 30.29 in 10.0 mi SSE 9.2 mph - N/A   Mostly Cloudy
12:35 AM 62.6 °F 55.4 °F 77% 30.29 in 10.0 mi SSE 9.2 mph - N/A   Scattered Clouds
12:55 AM 62.6 °F 55.4 °F 77% 30.29 in 10.0 mi SSE 9.2 mph - N/A   Mostly Cloudy
1:15 AM 62.6 °F 53.6 °F 72% 30.29 in 10.0 mi SE 3.5 mph - N/A   Partly Cloudy
1:35 AM 62.6 °F 53.6 °F 72% 30.29 in 10.0 mi Calm Calm - N/A   Mostly Cloudy
1:55 AM 62.6 °F 53.6 °F 72% 30.28 in 10.0 mi SSE 5.8 mph - N/A   Overcast
2:15 AM 64.4 °F 53.6 °F 68% 30.28 in 10.0 mi Calm Calm - N/A   Overcast
2:35 AM 62.6 °F 53.6 °F 72% 30.28 in 10.0 mi Calm Calm - N/A   Overcast
2:55 AM 64.4 °F 50.0 °F 59% 30.28 in 10.0 mi SSE 8.1 mph - N/A   Overcast
3:15 AM 64.4 °F 51.8 °F 64% 30.28 in 10.0 mi SSE 6.9 mph - N/A   Overcast
3:35 AM 64.4 °F 50.0 °F 59% 30.28 in 10.0 mi SSE 6.9 mph - N/A   Overcast
3:55 AM 64.4 °F 50.0 °F 59% 30.27 in 10.0 mi SSE 5.8 mph - N/A   Mostly Cloudy
4:15 AM 64.4 °F 50.0 °F 59% 30.27 in 10.0 mi SSE 8.1 mph - N/A   Scattered Clouds
4:35 AM 64.4 °F 50.0 °F 59% 30.27 in 10.0 mi SSE 8.1 mph - N/A   Partly Cloudy
4:55 AM 64.4 °F 50.0 °F 59% 30.28 in 10.0 mi SSE 5.8 mph - N/A   Partly Cloudy
5:15 AM 62.6 °F 50.0 °F 63% 30.28 in 10.0 mi SSE 8.1 mph - N/A   Scattered Clouds
5:35 AM 62.6 °F 50.0 °F 63% 30.29 in 10.0 mi SSE 5.8 mph - N/A   Overcast
5:55 AM 64.4 °F 50.0 °F 59% 30.30 in 10.0 mi SE 9.2 mph - N/A   Overcast
6:15 AM 64.4 °F 50.0 °F 59% 30.31 in 10.0 mi SE 8.1 mph - N/A   Mostly Cloudy
6:35 AM 62.6 °F 51.8 °F 68% 30.31 in 10.0 mi SE 8.1 mph - N/A   Mostly Cloudy
6:55 AM 62.6 °F 50.0 °F 63% 30.32 in 10.0 mi SE 10.4 mph - N/A   Partly Cloudy
7:15 AM 64.4 °F 51.8 °F 64% 30.33 in 10.0 mi SE 6.9 mph - N/A   Clear
7:35 AM 62.6 °F 51.8 °F 68% 30.33 in 10.0 mi SE 8.1 mph - N/A   Clear
7:55 AM 62.6 °F 53.6 °F 72% 30.34 in 10.0 mi SE 9.2 mph - N/A   Clear
8:15 AM 64.4 °F 53.6 °F 68% 30.34 in 10.0 mi SSE 9.2 mph - N/A   Clear
8:55 AM 66.2 °F 53.6 °F 64% 30.35 in 10.0 mi SE 9.2 mph - N/A   Partly Cloudy
9:15 AM 68.0 °F 53.6 °F 60% 30.35 in 10.0 mi SE 6.9 mph - N/A   Partly Cloudy
9:35 AM 68.0 °F 53.6 °F 60% 30.35 in 10.0 mi ESE 6.9 mph - N/A   Clear
9:55 AM 69.8 °F 51.8 °F 53% 30.35 in 10.0 mi SE 3.5 mph - N/A   Clear
10:15 AM 69.8 °F 53.6 °F 56% 30.35 in 10.0 mi Calm Calm - N/A   Clear
10:35 AM 71.6 °F 51.8 °F 50% 30.36 in 10.0 mi West 3.5 mph - N/A   Scattered Clouds
10:55 AM 71.6 °F 51.8 °F 50% 30.36 in 10.0 mi Calm Calm - N/A   Mostly Cloudy
11:15 AM 71.6 °F 53.6 °F 53% 30.36 in 10.0 mi Calm Calm - N/A   Mostly Cloudy
11:35 AM 71.6 °F 53.6 °F 53% 30.36 in 10.0 mi SW 5.8 mph - N/A   Overcast
11:55 AM 71.6 °F 53.6 °F 53% 30.36 in 10.0 mi Calm Calm - N/A   Mostly Cloudy
12:15 PM 71.6 °F 53.6 °F 53% 30.35 in 10.0 mi SSW 3.5 mph - N/A   Mostly Cloudy
12:35 PM 71.6 °F 53.6 °F 53% 30.34 in 10.0 mi South 6.9 mph - N/A   Mostly Cloudy
1:55 PM 75.2 °F 51.8 °F 44% 30.33 in 10.0 mi Calm Calm - N/A   Clear
2:15 PM 75.2 °F 51.8 °F 44% 30.33 in 10.0 mi ESE 3.5 mph - N/A   Partly Cloudy
2:35 PM 75.2 °F 51.8 °F 44% 30.32 in 10.0 mi Calm Calm - N/A   Scattered Clouds
2:55 PM 71.6 °F 59.0 °F 64% 30.33 in 4.0 mi West 12.7 mph 21.9 mph N/A   Mostly Cloudy
3:15 PM 64.4 °F 59.0 °F 83% 30.33 in 4.0 mi SSW 11.5 mph - 0.01 in   Overcast
3:35 PM 62.6 °F 57.2 °F 82% 30.36 in 5.0 mi WNW 12.7 mph 18.4 mph 0.04 in   Mostly Cloudy
3:55 PM 59.0 °F 57.2 °F 94% 30.38 in 9.0 mi West 8.1 mph - 0.06 in   Overcast
4:15 PM 59.0 °F 57.2 °F 94% 30.38 in 10.0 mi Calm Calm - N/A   Overcast
4:35 PM 59.0 °F 57.2 °F 94% 30.38 in 3.0 mi Calm Calm - 0.05 in   Mostly Cloudy
4:55 PM 59.0 °F 57.2 °F 94% 30.38 in 10.0 mi Calm Calm - 0.06 in   Overcast
5:15 PM 59.0 °F 57.2 °F 94% 30.37 in 10.0 mi Calm Calm - N/A   Overcast
5:35 PM 59.0 °F 57.2 °F 94% 30.36 in 10.0 mi Calm Calm - N/A   Overcast
5:55 PM 59.0 °F 57.2 °F 94% 30.36 in 10.0 mi Calm Calm - 0.01 in   Mostly Cloudy
6:15 PM 59.0 °F 57.2 °F 94% 30.36 in 10.0 mi Calm Calm - 0.01 in   Overcast
6:35 PM 59.0 °F 57.2 °F 94% 30.36 in 10.0 mi WSW 5.8 mph - 0.02 in   Overcast
6:55 PM 59.0 °F 57.2 °F 94% 30.37 in 10.0 mi Calm Calm - 0.02 in   Overcast
7:15 PM 59.0 °F 57.2 °F 94% 30.37 in 10.0 mi Calm Calm - N/A   Mostly Cloudy
7:35 PM 59.0 °F 57.2 °F 94% 30.38 in 10.0 mi Calm Calm - 0.01 in   Scattered Clouds
7:55 PM 59.0 °F 57.2 °F 94% 30.38 in 10.0 mi Calm Calm - 0.01 in   Mostly Cloudy
8:15 PM 59.0 °F 57.2 °F 94% 30.38 in 10.0 mi Calm Calm - N/A   Mostly Cloudy
8:35 PM 59.0 °F 57.2 °F 94% 30.39 in 10.0 mi Calm Calm - N/A   Scattered Clouds
8:55 PM 59.0 °F 55.4 °F 88% 30.39 in 10.0 mi Calm Calm - N/A   Mostly Cloudy
9:35 PM 59.0 °F 57.2 °F 94% 30.41 in 10.0 mi Calm Calm - N/A   Mostly Cloudy
9:55 PM 59.0 °F 57.2 °F 94% 30.41 in 10.0 mi Calm Calm - N/A   Mostly Cloudy
10:15 PM 59.0 °F 57.2 °F 94% 30.41 in 10.0 mi Calm Calm - N/A   Mostly Cloudy
10:35 PM 59.0 °F 57.2 °F 94% 30.40 in 10.0 mi Calm Calm - N/A   Overcast
10:55 PM 59.0 °F 57.2 °F 94% 30.41 in 10.0 mi Calm Calm - N/A   Scattered Clouds
11:15 PM 59.0 °F 57.2 °F 94% 30.40 in 10.0 mi Calm Calm - N/A   Clear
11:35 PM 59.0 °F 57.2 °F 94% 30.40 in 10.0 mi Calm Calm - N/A   Mostly Cloudy
11:55 PM 59.0 °F 57.2 °F 94% 30.40 in 10.0 mi Calm Calm - N/A   Overcast